Location: Happy Homes Park
(37.7458°N, 99.9763°W)
Time: 19:38:07
(UTC+00:00)

COSMOS 2455 - Pass Details

Date: 06 October 2022
Orbit: 901 x 909 km, 67.1° (Epoch: 28 November)

Event Time Altitude Azimuth Distance (km) Brightness Sun altitude
Rises 11:58:00 0° 331° (NNW) 3,540 5.7 -9.1°
Reaches altitude 10° 12:00:30 10° 331° (NNW) 2,596 5.0 -8.6°
Maximum altitude 12:06:33 84° 245° (WSW) 918 2.9 -7.4°
Drops below altitude 10° 12:12:33 10° 157° (SSE) 2,583 5.6 -6.3°
Sets 12:15:03 0° 157° (SSE) 3,521 6.3 -5.8°
